Year,Month,Day,Hour,Minute,Value (Times are PST for temperature in C)
2013,12,15,00,00,6.90
2013,12,15,00,01,6.90
2013,12,15,00,02,7.00
2013,12,15,00,03,7.00
2013,12,15,00,04,7.00
2013,12,15,00,05,7.00
2013,12,15,00,06,7.00
2013,12,15,00,07,7.00
2013,12,15,00,08,7.00
2013,12,15,00,09,7.00
2013,12,15,00,10,6.90
2013,12,15,00,11,6.90
2013,12,15,00,12,6.90
2013,12,15,00,13,6.90
2013,12,15,00,14,6.90
2013,12,15,00,15,6.90
2013,12,15,00,16,6.90
2013,12,15,00,17,6.90
2013,12,15,00,18,6.90
2013,12,15,00,19,6.90
2013,12,15,00,20,6.90
2013,12,15,00,21,6.90
2013,12,15,00,22,6.90
2013,12,15,00,23,6.90
2013,12,15,00,24,6.90
2013,12,15,00,25,6.90
2013,12,15,00,26,6.90
2013,12,15,00,27,6.90
2013,12,15,00,28,6.90
2013,12,15,00,29,6.90
2013,12,15,00,30,6.90
2013,12,15,00,31,6.90
2013,12,15,00,32,6.90
2013,12,15,00,33,6.90
2013,12,15,00,34,6.90
2013,12,15,00,35,6.90
2013,12,15,00,36,6.90
2013,12,15,00,37,6.90
2013,12,15,00,38,6.90
2013,12,15,00,39,6.90
2013,12,15,00,40,6.90
2013,12,15,00,41,6.90
2013,12,15,00,42,7.00
2013,12,15,00,43,7.00
2013,12,15,00,44,7.00
2013,12,15,00,45,7.00
2013,12,15,00,46,7.00
2013,12,15,00,47,7.00
2013,12,15,00,48,7.00
2013,12,15,00,49,7.10
2013,12,15,00,50,7.10
2013,12,15,00,51,7.10
2013,12,15,00,52,7.10
2013,12,15,00,53,7.10
2013,12,15,00,54,7.10
2013,12,15,00,55,7.10
2013,12,15,00,56,7.10
2013,12,15,00,57,7.10
2013,12,15,00,58,7.10
2013,12,15,00,59,7.10
2013,12,15,01,00,7.10
2013,12,15,01,01,7.10
2013,12,15,01,02,7.20
2013,12,15,01,03,7.20
2013,12,15,01,04,7.10
2013,12,15,01,05,7.10
2013,12,15,01,06,7.10
2013,12,15,01,07,7.10
2013,12,15,01,08,7.10
2013,12,15,01,09,7.10
2013,12,15,01,10,7.10
2013,12,15,01,11,7.10
2013,12,15,01,12,7.10
2013,12,15,01,13,7.10
2013,12,15,01,14,7.00
2013,12,15,01,15,7.00
2013,12,15,01,16,7.00
2013,12,15,01,17,7.00
2013,12,15,01,18,7.00
2013,12,15,01,19,7.00
2013,12,15,01,20,7.00
2013,12,15,01,21,7.00
2013,12,15,01,22,6.90
2013,12,15,01,23,6.90
2013,12,15,01,24,6.90
2013,12,15,01,25,6.90
2013,12,15,01,26,6.90
2013,12,15,01,27,6.90
2013,12,15,01,28,6.90
2013,12,15,01,29,6.90
2013,12,15,01,30,6.90
2013,12,15,01,31,6.90
2013,12,15,01,32,6.90
2013,12,15,01,33,6.90
2013,12,15,01,34,6.90
2013,12,15,01,35,7.00
2013,12,15,01,36,7.00
2013,12,15,01,37,7.00
2013,12,15,01,38,7.00
2013,12,15,01,39,7.00
2013,12,15,01,40,7.00
2013,12,15,01,41,7.00
2013,12,15,01,42,7.00
2013,12,15,01,43,7.00
2013,12,15,01,44,7.00
2013,12,15,01,45,7.00
2013,12,15,01,46,7.00
2013,12,15,01,47,7.00
2013,12,15,01,48,7.10
2013,12,15,01,49,7.10
2013,12,15,01,50,7.10
2013,12,15,01,51,7.10
2013,12,15,01,52,7.10
2013,12,15,01,53,7.10
2013,12,15,01,54,7.20
2013,12,15,01,55,7.20
2013,12,15,01,56,7.20
2013,12,15,01,57,7.20
2013,12,15,01,58,7.20
2013,12,15,01,59,7.20
2013,12,15,02,00,7.20
2013,12,15,02,01,7.20
2013,12,15,02,02,7.20
2013,12,15,02,03,7.20
2013,12,15,02,04,7.20
2013,12,15,02,05,7.20
2013,12,15,02,06,7.20
2013,12,15,02,07,7.20
2013,12,15,02,08,7.20
2013,12,15,02,09,7.20
2013,12,15,02,10,7.20
2013,12,15,02,11,7.20
2013,12,15,02,12,7.20
2013,12,15,02,13,7.20
2013,12,15,02,14,7.20
2013,12,15,02,15,7.20
2013,12,15,02,16,7.20
2013,12,15,02,17,7.30
2013,12,15,02,18,7.30
2013,12,15,02,19,7.30
2013,12,15,02,20,7.30
2013,12,15,02,21,7.30
2013,12,15,02,22,7.30
2013,12,15,02,23,7.30
2013,12,15,02,24,7.30
2013,12,15,02,25,7.30
2013,12,15,02,26,7.30
2013,12,15,02,27,7.30
2013,12,15,02,28,7.30
2013,12,15,02,29,7.30
2013,12,15,02,30,7.30
2013,12,15,02,31,7.30
2013,12,15,02,32,7.30
2013,12,15,02,33,7.20
2013,12,15,02,34,7.20
2013,12,15,02,35,7.20
2013,12,15,02,36,7.20
2013,12,15,02,37,7.20
2013,12,15,02,38,7.10
2013,12,15,02,39,7.10
2013,12,15,02,40,7.10
2013,12,15,02,41,7.10
2013,12,15,02,42,7.10
2013,12,15,02,43,7.10
2013,12,15,02,44,7.10
2013,12,15,02,45,7.10
2013,12,15,02,46,7.10
2013,12,15,02,47,7.10
2013,12,15,02,48,7.20
2013,12,15,02,49,7.20
2013,12,15,02,50,7.20
2013,12,15,02,51,7.20
2013,12,15,02,52,7.20
2013,12,15,02,53,7.10
2013,12,15,02,54,7.10
2013,12,15,02,55,7.10
2013,12,15,02,56,7.10
2013,12,15,02,57,7.10
2013,12,15,02,58,7.00
2013,12,15,02,59,7.00
2013,12,15,03,00,7.00
2013,12,15,03,01,7.00
2013,12,15,03,02,7.00
2013,12,15,03,03,6.90
2013,12,15,03,04,7.00
2013,12,15,03,05,7.00
2013,12,15,03,06,7.00
2013,12,15,03,07,7.10
2013,12,15,03,08,7.10
2013,12,15,03,09,7.10
2013,12,15,03,10,7.20
2013,12,15,03,11,7.20
2013,12,15,03,12,7.20
2013,12,15,03,13,7.30
2013,12,15,03,14,7.30
2013,12,15,03,15,7.30
2013,12,15,03,16,7.30
2013,12,15,03,17,7.30
2013,12,15,03,18,7.40
2013,12,15,03,19,7.40
2013,12,15,03,20,7.40
2013,12,15,03,21,7.40
2013,12,15,03,22,7.40
2013,12,15,03,23,7.40
2013,12,15,03,24,7.30
2013,12,15,03,25,7.30
2013,12,15,03,26,7.30
2013,12,15,03,27,7.30
2013,12,15,03,28,7.30
2013,12,15,03,29,7.30
2013,12,15,03,30,7.30
2013,12,15,03,31,7.30
2013,12,15,03,32,7.30
2013,12,15,03,33,7.30
2013,12,15,03,34,7.30
2013,12,15,03,35,7.30
2013,12,15,03,36,7.30
2013,12,15,03,37,7.30
2013,12,15,03,38,7.30
2013,12,15,03,39,7.20
2013,12,15,03,40,7.20
2013,12,15,03,41,7.20
2013,12,15,03,42,7.30
2013,12,15,03,43,7.20
2013,12,15,03,44,7.30
2013,12,15,03,45,7.20
2013,12,15,03,46,7.20
2013,12,15,03,47,7.20
2013,12,15,03,48,7.20
2013,12,15,03,49,7.20
2013,12,15,03,50,7.10
2013,12,15,03,51,7.10
2013,12,15,03,52,7.10
2013,12,15,03,53,7.10
2013,12,15,03,54,7.10
2013,12,15,03,55,7.10
2013,12,15,03,56,7.10
2013,12,15,03,57,7.20
2013,12,15,03,58,7.20
2013,12,15,03,59,7.30
2013,12,15,04,00,7.30
2013,12,15,04,01,7.30
2013,12,15,04,02,7.30
2013,12,15,04,03,7.30
2013,12,15,04,04,7.40
2013,12,15,04,05,7.40
2013,12,15,04,06,7.40
2013,12,15,04,07,7.40
2013,12,15,04,08,7.40
2013,12,15,04,09,7.40
2013,12,15,04,10,7.30
2013,12,15,04,11,7.30
2013,12,15,04,12,7.30
2013,12,15,04,13,7.30
2013,12,15,04,14,7.30
2013,12,15,04,15,7.30
2013,12,15,04,16,7.30
2013,12,15,04,17,7.30
2013,12,15,04,18,7.30
2013,12,15,04,19,7.30
2013,12,15,04,20,7.30
2013,12,15,04,21,7.30
2013,12,15,04,22,7.30
2013,12,15,04,23,7.20
2013,12,15,04,24,7.20
2013,12,15,04,25,7.20
2013,12,15,04,26,7.20
2013,12,15,04,27,7.20
2013,12,15,04,28,7.20
2013,12,15,04,29,7.20
2013,12,15,04,30,7.30
2013,12,15,04,31,7.30
2013,12,15,04,32,7.30
2013,12,15,04,33,7.30
2013,12,15,04,34,7.40
2013,12,15,04,35,7.40
2013,12,15,04,36,7.40
2013,12,15,04,37,7.40
2013,12,15,04,38,7.40
2013,12,15,04,39,7.40
2013,12,15,04,40,7.40
2013,12,15,04,41,7.40
2013,12,15,04,42,7.30
2013,12,15,04,43,7.30
2013,12,15,04,44,7.30
2013,12,15,04,45,7.30
2013,12,15,04,46,7.30
2013,12,15,04,47,7.30
2013,12,15,04,48,7.30
2013,12,15,04,49,7.30
2013,12,15,04,50,7.30
2013,12,15,04,51,7.30
2013,12,15,04,52,7.30
2013,12,15,04,53,7.30
2013,12,15,04,54,7.30
2013,12,15,04,55,7.30
2013,12,15,04,56,7.30
2013,12,15,04,57,7.30
2013,12,15,04,58,7.30
2013,12,15,04,59,7.30
2013,12,15,05,00,7.20
2013,12,15,05,01,7.20
2013,12,15,05,02,7.20
2013,12,15,05,03,7.20
2013,12,15,05,04,7.20
2013,12,15,05,05,7.20
2013,12,15,05,06,7.20
2013,12,15,05,07,7.20
2013,12,15,05,08,7.20
2013,12,15,05,09,7.20
2013,12,15,05,10,7.20
2013,12,15,05,11,7.20
2013,12,15,05,12,7.20
2013,12,15,05,13,7.20
2013,12,15,05,14,7.20
2013,12,15,05,15,7.20
2013,12,15,05,16,7.20
2013,12,15,05,17,7.20
2013,12,15,05,18,7.20
2013,12,15,05,19,7.20
2013,12,15,05,20,7.20
2013,12,15,05,21,7.20
2013,12,15,05,22,7.20
2013,12,15,05,23,7.20
2013,12,15,05,24,7.20
2013,12,15,05,25,7.20
2013,12,15,05,26,7.20
2013,12,15,05,27,7.20
2013,12,15,05,28,7.20
2013,12,15,05,29,7.10
2013,12,15,05,30,7.20
2013,12,15,05,31,7.20
2013,12,15,05,32,7.30
2013,12,15,05,33,7.30
2013,12,15,05,34,7.30
2013,12,15,05,35,7.30
2013,12,15,05,36,7.30
2013,12,15,05,37,7.30
2013,12,15,05,38,7.30
2013,12,15,05,39,7.30
2013,12,15,05,40,7.30
2013,12,15,05,41,7.30
2013,12,15,05,42,7.30
2013,12,15,05,43,7.30
2013,12,15,05,44,7.20
2013,12,15,05,45,7.20
2013,12,15,05,46,7.20
2013,12,15,05,47,7.20
2013,12,15,05,48,7.20
2013,12,15,05,49,7.20
2013,12,15,05,50,7.20
2013,12,15,05,51,7.20
2013,12,15,05,52,7.10
2013,12,15,05,53,7.10
2013,12,15,05,54,7.00
2013,12,15,05,55,7.00
2013,12,15,05,56,7.00
2013,12,15,05,57,6.90
2013,12,15,05,58,6.90
2013,12,15,05,59,6.90
2013,12,15,06,00,6.90
2013,12,15,06,01,6.90
2013,12,15,06,02,6.90
2013,12,15,06,03,6.90
2013,12,15,06,04,6.90
2013,12,15,06,05,6.90
2013,12,15,06,06,7.00
2013,12,15,06,07,7.00
2013,12,15,06,08,7.10
2013,12,15,06,09,7.10
2013,12,15,06,10,7.10
2013,12,15,06,11,7.10
2013,12,15,06,12,7.10
2013,12,15,06,13,7.10
2013,12,15,06,14,7.10
2013,12,15,06,15,7.10
2013,12,15,06,16,7.20
2013,12,15,06,17,7.20
2013,12,15,06,18,7.20
2013,12,15,06,19,7.20
2013,12,15,06,20,7.20
2013,12,15,06,21,7.20
2013,12,15,06,22,7.20
2013,12,15,06,23,7.20
2013,12,15,06,24,7.20
2013,12,15,06,25,7.20
2013,12,15,06,26,7.20
2013,12,15,06,27,7.20
2013,12,15,06,28,7.20
2013,12,15,06,29,7.10
2013,12,15,06,30,7.10
2013,12,15,06,31,7.20
2013,12,15,06,32,7.20
2013,12,15,06,33,7.10
2013,12,15,06,34,7.10
2013,12,15,06,35,7.10
2013,12,15,06,36,7.10
2013,12,15,06,37,7.10
2013,12,15,06,38,7.10
2013,12,15,06,39,7.10
2013,12,15,06,40,7.10
2013,12,15,06,41,7.10
2013,12,15,06,42,7.10
2013,12,15,06,43,7.10
2013,12,15,06,44,7.00
2013,12,15,06,45,7.00
2013,12,15,06,46,7.00
2013,12,15,06,47,7.00
2013,12,15,06,48,7.00
2013,12,15,06,49,6.90
2013,12,15,06,50,6.90
2013,12,15,06,51,6.90
2013,12,15,06,52,6.90
2013,12,15,06,53,6.80
2013,12,15,06,54,6.80
2013,12,15,06,55,6.80
2013,12,15,06,56,6.80
2013,12,15,06,57,6.80
2013,12,15,06,58,6.80
2013,12,15,06,59,6.80
2013,12,15,07,00,6.80
2013,12,15,07,01,6.80
2013,12,15,07,02,6.80
2013,12,15,07,03,6.80
2013,12,15,07,04,6.80
2013,12,15,07,05,6.70
2013,12,15,07,06,6.70
2013,12,15,07,07,6.70
2013,12,15,07,08,6.70
2013,12,15,07,09,6.70
2013,12,15,07,10,6.70
2013,12,15,07,11,6.70
2013,12,15,07,12,6.70
2013,12,15,07,13,6.70
2013,12,15,07,14,6.70
2013,12,15,07,15,6.70
2013,12,15,07,16,6.70
2013,12,15,07,17,6.70
2013,12,15,07,18,6.70
2013,12,15,07,19,6.70
2013,12,15,07,20,6.70
2013,12,15,07,21,6.70
2013,12,15,07,22,6.70
2013,12,15,07,23,6.70
2013,12,15,07,24,6.70
2013,12,15,07,25,6.70
2013,12,15,07,26,6.80
2013,12,15,07,27,6.80
2013,12,15,07,28,6.80
2013,12,15,07,29,6.70
2013,12,15,07,30,6.70
2013,12,15,07,31,6.60
2013,12,15,07,32,6.60
2013,12,15,07,33,6.60
2013,12,15,07,34,6.50
2013,12,15,07,35,6.50
2013,12,15,07,36,6.40
2013,12,15,07,37,6.40
2013,12,15,07,38,6.30
2013,12,15,07,39,6.30
2013,12,15,07,40,6.30
2013,12,15,07,41,6.20
2013,12,15,07,42,6.20
2013,12,15,07,43,6.20
2013,12,15,07,44,6.20
2013,12,15,07,45,6.20
2013,12,15,07,46,6.20
2013,12,15,07,47,6.20
2013,12,15,07,48,6.30
2013,12,15,07,49,6.30
2013,12,15,07,50,6.30
2013,12,15,07,51,6.30
2013,12,15,07,52,6.30
2013,12,15,07,53,6.30
2013,12,15,07,54,6.30
2013,12,15,07,55,6.30
2013,12,15,07,56,6.30
2013,12,15,07,57,6.30
2013,12,15,07,58,6.20
2013,12,15,07,59,6.20
2013,12,15,08,00,6.20
2013,12,15,08,01,6.20
2013,12,15,08,02,6.20
2013,12,15,08,03,6.20
2013,12,15,08,04,6.20
2013,12,15,08,05,6.20
2013,12,15,08,06,6.20
2013,12,15,08,07,6.20
2013,12,15,08,08,6.20
2013,12,15,08,09,6.20
2013,12,15,08,10,6.20
2013,12,15,08,11,6.20
2013,12,15,08,12,6.20
2013,12,15,08,13,6.20
2013,12,15,08,14,6.20
2013,12,15,08,15,6.20
2013,12,15,08,16,6.20
2013,12,15,08,17,6.20
2013,12,15,08,18,6.20
2013,12,15,08,19,6.20
2013,12,15,08,20,6.20
2013,12,15,08,21,6.20
2013,12,15,08,22,6.20
2013,12,15,08,23,6.20
2013,12,15,08,24,6.20
2013,12,15,08,25,6.10
2013,12,15,08,26,6.10
2013,12,15,08,27,6.10
2013,12,15,08,28,6.10
2013,12,15,08,29,6.20
2013,12,15,08,30,6.20
2013,12,15,08,31,6.20
2013,12,15,08,32,6.20
2013,12,15,08,33,6.20
2013,12,15,08,34,6.30
2013,12,15,08,35,6.30
2013,12,15,08,36,6.30
2013,12,15,08,37,6.30
2013,12,15,08,38,6.30
2013,12,15,08,39,6.30
2013,12,15,08,40,6.30
2013,12,15,08,41,6.30
2013,12,15,08,42,6.30
2013,12,15,08,43,6.30
2013,12,15,08,44,6.30
2013,12,15,08,45,6.30
2013,12,15,08,46,6.30
2013,12,15,08,47,6.20
2013,12,15,08,48,6.20
2013,12,15,08,49,6.20
2013,12,15,08,50,6.20
2013,12,15,08,51,6.20
2013,12,15,08,52,6.20
2013,12,15,08,53,6.20
2013,12,15,08,54,6.20
2013,12,15,08,55,6.20
2013,12,15,08,56,6.20
2013,12,15,08,57,6.20
2013,12,15,08,58,6.20
2013,12,15,08,59,6.20
2013,12,15,09,00,6.20
2013,12,15,09,01,6.20
2013,12,15,09,02,6.10
2013,12,15,09,03,6.10
2013,12,15,09,04,6.10
2013,12,15,09,05,6.10
2013,12,15,09,06,6.10
2013,12,15,09,07,6.10
2013,12,15,09,08,6.10
2013,12,15,09,09,6.10
2013,12,15,09,10,6.10
2013,12,15,09,11,6.10
2013,12,15,09,12,6.00
2013,12,15,09,13,6.00
2013,12,15,09,14,6.00
2013,12,15,09,15,6.00
2013,12,15,09,16,6.00
2013,12,15,09,17,6.00
2013,12,15,09,18,6.00
2013,12,15,09,19,6.00
2013,12,15,09,20,5.90
2013,12,15,09,21,5.90
2013,12,15,09,22,5.90
2013,12,15,09,23,5.90
2013,12,15,09,24,6.00
2013,12,15,09,25,6.00
2013,12,15,09,26,6.00
2013,12,15,09,27,6.00
2013,12,15,09,28,6.00
2013,12,15,09,29,6.00
2013,12,15,09,30,6.00
2013,12,15,09,31,6.10
2013,12,15,09,32,6.10
2013,12,15,09,33,6.10
2013,12,15,09,34,6.20
2013,12,15,09,35,6.20
2013,12,15,09,36,6.20
2013,12,15,09,37,6.20
2013,12,15,09,38,6.30
2013,12,15,09,39,6.30
2013,12,15,09,40,6.30
2013,12,15,09,41,6.30
2013,12,15,09,42,6.30
2013,12,15,09,43,6.30
2013,12,15,09,44,6.30
2013,12,15,09,45,6.30
2013,12,15,09,46,6.30
2013,12,15,09,47,6.30
2013,12,15,09,48,6.30
2013,12,15,09,49,6.30
2013,12,15,09,50,6.30
2013,12,15,09,51,6.30
2013,12,15,09,52,6.30
2013,12,15,09,53,6.40
2013,12,15,09,54,6.40
2013,12,15,09,55,6.40
2013,12,15,09,56,6.40
2013,12,15,09,57,6.40
2013,12,15,09,58,6.50
2013,12,15,09,59,6.50
2013,12,15,10,00,6.50
2013,12,15,10,01,6.40
2013,12,15,10,02,6.40
2013,12,15,10,03,6.40
2013,12,15,10,04,6.40
2013,12,15,10,05,6.40
2013,12,15,10,06,6.40
2013,12,15,10,07,6.40
2013,12,15,10,08,6.40
2013,12,15,10,09,6.40
2013,12,15,10,10,6.40
2013,12,15,10,11,6.40
2013,12,15,10,12,6.40
2013,12,15,10,13,6.40
2013,12,15,10,14,6.40
2013,12,15,10,15,6.40
2013,12,15,10,16,6.40
2013,12,15,10,17,6.50
2013,12,15,10,18,6.50
2013,12,15,10,19,6.50
2013,12,15,10,20,6.50
2013,12,15,10,21,6.60
2013,12,15,10,22,6.60
2013,12,15,10,23,6.60
2013,12,15,10,24,6.60
2013,12,15,10,25,6.60
2013,12,15,10,26,6.60
2013,12,15,10,27,6.60
2013,12,15,10,28,6.70
2013,12,15,10,29,6.70
2013,12,15,10,30,6.70
2013,12,15,10,31,6.70
2013,12,15,10,32,6.70
2013,12,15,10,33,6.70
2013,12,15,10,34,6.70
2013,12,15,10,35,6.80
2013,12,15,10,36,6.80
2013,12,15,10,37,6.80
2013,12,15,10,38,6.80
2013,12,15,10,39,6.80
2013,12,15,10,40,6.80
2013,12,15,10,41,6.80
2013,12,15,10,42,6.90
2013,12,15,10,43,6.90
2013,12,15,10,44,6.90
2013,12,15,10,45,7.00
2013,12,15,10,46,7.00
2013,12,15,10,47,7.00
2013,12,15,10,48,7.00
2013,12,15,10,49,7.00
2013,12,15,10,50,7.10
2013,12,15,10,51,7.10
2013,12,15,10,52,7.10
2013,12,15,10,53,7.20
2013,12,15,10,54,7.30
2013,12,15,10,55,7.30
2013,12,15,10,56,7.30
2013,12,15,10,57,7.30
2013,12,15,10,58,7.30
2013,12,15,10,59,7.30
2013,12,15,11,00,7.30
2013,12,15,11,01,7.30
2013,12,15,11,02,7.40
2013,12,15,11,03,7.40
2013,12,15,11,04,7.50
2013,12,15,11,05,7.50
2013,12,15,11,06,7.60
2013,12,15,11,07,7.60
2013,12,15,11,08,7.60
2013,12,15,11,09,7.70
2013,12,15,11,10,7.70
2013,12,15,11,11,7.70
2013,12,15,11,12,7.70
2013,12,15,11,13,7.70
2013,12,15,11,14,7.80
2013,12,15,11,15,7.80
2013,12,15,11,16,7.80
2013,12,15,11,17,7.80
2013,12,15,11,18,7.80
2013,12,15,11,19,7.80
2013,12,15,11,20,7.80
2013,12,15,11,21,7.80
2013,12,15,11,22,7.90
2013,12,15,11,23,7.90
2013,12,15,11,24,7.90
2013,12,15,11,25,7.90
2013,12,15,11,26,7.90
2013,12,15,11,27,7.90
2013,12,15,11,28,7.90
2013,12,15,11,29,7.90
2013,12,15,11,30,7.90
2013,12,15,11,31,7.90
2013,12,15,11,32,7.90
2013,12,15,11,33,7.90
2013,12,15,11,34,8.00
2013,12,15,11,35,8.00
2013,12,15,11,36,8.00
2013,12,15,11,37,8.10
2013,12,15,11,38,8.00
2013,12,15,11,39,8.00
2013,12,15,11,40,8.00
2013,12,15,11,41,8.00
2013,12,15,11,42,8.00
2013,12,15,11,43,8.10
2013,12,15,11,44,8.10
2013,12,15,11,45,8.10
2013,12,15,11,46,8.10
2013,12,15,11,47,8.10
2013,12,15,11,48,8.10
2013,12,15,11,49,8.20
2013,12,15,11,50,8.20
2013,12,15,11,51,8.20
2013,12,15,11,52,8.30
2013,12,15,11,53,8.30
2013,12,15,11,54,8.30
2013,12,15,11,55,8.30
2013,12,15,11,56,8.40
2013,12,15,11,57,8.40
2013,12,15,11,58,8.40
2013,12,15,11,59,8.30
2013,12,15,12,00,8.30
2013,12,15,12,01,8.30
2013,12,15,12,02,8.30
2013,12,15,12,03,8.30
2013,12,15,12,04,8.30
2013,12,15,12,05,8.30
2013,12,15,12,06,8.30
2013,12,15,12,07,8.30
2013,12,15,12,08,8.30
2013,12,15,12,09,8.30
2013,12,15,12,10,8.30
2013,12,15,12,11,8.30
2013,12,15,12,12,8.30
2013,12,15,12,13,8.30
2013,12,15,12,14,8.30
2013,12,15,12,15,8.40
2013,12,15,12,16,8.40
2013,12,15,12,17,8.40
2013,12,15,12,18,8.40
2013,12,15,12,19,8.50
2013,12,15,12,20,8.50
2013,12,15,12,21,8.50
2013,12,15,12,22,8.50
2013,12,15,12,23,8.60
2013,12,15,12,24,8.60
2013,12,15,12,25,8.60
2013,12,15,12,26,8.60
2013,12,15,12,27,8.60
2013,12,15,12,28,8.60
2013,12,15,12,29,8.60
2013,12,15,12,30,8.60
2013,12,15,12,31,8.60
2013,12,15,12,32,8.60
2013,12,15,12,33,8.60
2013,12,15,12,34,8.60
2013,12,15,12,35,8.60
2013,12,15,12,36,8.60
2013,12,15,12,37,8.60
2013,12,15,12,38,8.60
2013,12,15,12,39,8.60
2013,12,15,12,40,8.60
2013,12,15,12,41,8.60
2013,12,15,12,42,8.70
2013,12,15,12,43,8.70
2013,12,15,12,44,8.70
2013,12,15,12,45,8.70
2013,12,15,12,46,8.80
2013,12,15,12,47,8.80
2013,12,15,12,48,8.80
2013,12,15,12,49,8.90
2013,12,15,12,50,8.90
2013,12,15,12,51,9.00
2013,12,15,12,52,9.10
2013,12,15,12,53,9.20
2013,12,15,12,54,9.20
2013,12,15,12,55,9.20
2013,12,15,12,56,9.20
2013,12,15,12,57,9.20
2013,12,15,12,58,9.20
2013,12,15,12,59,9.30
2013,12,15,13,00,9.30
2013,12,15,13,01,9.20
2013,12,15,13,02,9.20
2013,12,15,13,03,9.20
2013,12,15,13,04,9.20
2013,12,15,13,05,9.10
2013,12,15,13,06,9.10
2013,12,15,13,07,9.00
2013,12,15,13,08,9.00
2013,12,15,13,09,8.90
2013,12,15,13,10,8.80
2013,12,15,13,11,8.80
2013,12,15,13,12,8.80
2013,12,15,13,13,8.80
2013,12,15,13,14,8.80
2013,12,15,13,15,8.80
2013,12,15,13,16,8.80
2013,12,15,13,17,8.80
2013,12,15,13,18,8.90
2013,12,15,13,19,8.90
2013,12,15,13,20,8.90
2013,12,15,13,21,9.00
2013,12,15,13,22,8.90
2013,12,15,13,23,8.90
2013,12,15,13,24,8.90
2013,12,15,13,25,8.90
2013,12,15,13,26,8.80
2013,12,15,13,27,8.80
2013,12,15,13,28,8.80
2013,12,15,13,29,8.80
2013,12,15,13,30,8.80
2013,12,15,13,31,8.80
2013,12,15,13,32,8.80
2013,12,15,13,33,8.80
2013,12,15,13,34,8.80
2013,12,15,13,35,8.90
2013,12,15,13,36,8.90
2013,12,15,13,37,9.00
2013,12,15,13,38,9.00
2013,12,15,13,39,9.10
2013,12,15,13,40,9.10
2013,12,15,13,41,9.10
2013,12,15,13,42,9.10
2013,12,15,13,43,9.10
2013,12,15,13,44,9.00
2013,12,15,13,45,8.90
2013,12,15,13,46,8.80
2013,12,15,13,47,8.80
2013,12,15,13,48,8.80
2013,12,15,13,49,8.80
2013,12,15,13,50,8.80
2013,12,15,13,51,8.80
2013,12,15,13,52,8.80
2013,12,15,13,53,8.80
2013,12,15,13,54,8.90
2013,12,15,13,55,8.90
2013,12,15,13,56,8.90
2013,12,15,13,57,8.90
2013,12,15,13,58,9.00
2013,12,15,13,59,9.00
2013,12,15,14,00,9.00
2013,12,15,14,01,9.10
2013,12,15,14,02,9.10
2013,12,15,14,03,9.10
2013,12,15,14,04,9.20
2013,12,15,14,05,9.20
2013,12,15,14,06,9.30
2013,12,15,14,07,9.30
2013,12,15,14,08,9.40
2013,12,15,14,09,9.40
2013,12,15,14,10,9.50
2013,12,15,14,11,9.50
2013,12,15,14,12,9.50
2013,12,15,14,13,9.60
2013,12,15,14,14,9.60
2013,12,15,14,15,9.60
2013,12,15,14,16,9.60
2013,12,15,14,17,9.60
2013,12,15,14,18,9.60
2013,12,15,14,19,9.60
2013,12,15,14,20,9.60
2013,12,15,14,21,9.70
2013,12,15,14,22,9.70
2013,12,15,14,23,9.70
2013,12,15,14,24,9.70
2013,12,15,14,25,9.60
2013,12,15,14,26,9.60
2013,12,15,14,27,9.60
2013,12,15,14,28,9.60
2013,12,15,14,29,9.60
2013,12,15,14,30,9.60
2013,12,15,14,31,9.60
2013,12,15,14,32,9.60
2013,12,15,14,33,9.60
2013,12,15,14,34,9.50
2013,12,15,14,35,9.50
2013,12,15,14,36,9.50
2013,12,15,14,37,9.50
2013,12,15,14,38,9.50
2013,12,15,14,39,9.50
2013,12,15,14,40,9.50
2013,12,15,14,41,9.50
2013,12,15,14,42,9.50
2013,12,15,14,43,9.50
2013,12,15,14,44,9.40
2013,12,15,14,45,9.40
2013,12,15,14,46,9.40
2013,12,15,14,47,9.40
2013,12,15,14,48,9.40
2013,12,15,14,49,9.40
2013,12,15,14,50,9.40
2013,12,15,14,51,9.40
2013,12,15,14,52,9.40
2013,12,15,14,53,9.30
2013,12,15,14,54,9.30
2013,12,15,14,55,9.30
2013,12,15,14,56,9.30
2013,12,15,14,57,9.20
2013,12,15,14,58,9.20
2013,12,15,14,59,9.20
2013,12,15,15,00,9.20
2013,12,15,15,01,9.10
2013,12,15,15,02,9.10
2013,12,15,15,03,9.10
2013,12,15,15,04,9.00
2013,12,15,15,05,9.00
2013,12,15,15,06,9.00
2013,12,15,15,07,9.00
2013,12,15,15,08,9.00
2013,12,15,15,09,9.00
2013,12,15,15,10,9.00
2013,12,15,15,11,9.00
2013,12,15,15,12,9.00
2013,12,15,15,13,9.00
2013,12,15,15,14,9.00
2013,12,15,15,15,9.00
2013,12,15,15,16,9.00
2013,12,15,15,17,9.00
2013,12,15,15,18,9.00
2013,12,15,15,19,8.90
2013,12,15,15,20,8.90
2013,12,15,15,21,8.90
2013,12,15,15,22,8.80
2013,12,15,15,23,8.80
2013,12,15,15,24,8.70
2013,12,15,15,25,8.70
2013,12,15,15,26,8.70
2013,12,15,15,27,8.70
2013,12,15,15,28,8.60
2013,12,15,15,29,8.60
2013,12,15,15,30,8.50
2013,12,15,15,31,8.40
2013,12,15,15,32,8.30
2013,12,15,15,33,8.30
2013,12,15,15,34,8.20
2013,12,15,15,35,8.10
2013,12,15,15,36,8.10
2013,12,15,15,37,8.00
2013,12,15,15,38,7.80
2013,12,15,15,39,7.80
2013,12,15,15,40,7.60
2013,12,15,15,41,7.60
2013,12,15,15,42,7.50
2013,12,15,15,43,7.50
2013,12,15,15,44,7.40
2013,12,15,15,45,7.40
2013,12,15,15,46,7.40
2013,12,15,15,47,7.40
2013,12,15,15,48,7.40
2013,12,15,15,49,7.30
2013,12,15,15,50,7.30
2013,12,15,15,51,7.30
2013,12,15,15,52,7.20
2013,12,15,15,53,7.20
2013,12,15,15,54,7.20
2013,12,15,15,55,7.10
2013,12,15,15,56,7.10
2013,12,15,15,57,7.10
2013,12,15,15,58,7.10
2013,12,15,15,59,7.00
2013,12,15,16,00,7.00
2013,12,15,16,01,6.90
2013,12,15,16,02,6.90
2013,12,15,16,03,6.80
2013,12,15,16,04,6.80
2013,12,15,16,05,6.70
2013,12,15,16,06,6.70
2013,12,15,16,07,6.70
2013,12,15,16,08,6.70
2013,12,15,16,09,6.70
2013,12,15,16,10,6.60
2013,12,15,16,11,6.60
2013,12,15,16,12,6.50
2013,12,15,16,13,6.40
2013,12,15,16,14,6.40
2013,12,15,16,15,6.40
2013,12,15,16,16,6.40
2013,12,15,16,17,6.40
2013,12,15,16,18,6.40
2013,12,15,16,19,6.40
2013,12,15,16,20,6.40
2013,12,15,16,21,6.40
2013,12,15,16,22,6.40
2013,12,15,16,23,6.30
2013,12,15,16,24,6.20
2013,12,15,16,25,6.10
2013,12,15,16,26,6.00
2013,12,15,16,27,5.90
2013,12,15,16,28,5.90
2013,12,15,16,29,5.80
2013,12,15,16,30,5.80
2013,12,15,16,31,5.80
2013,12,15,16,32,5.80
2013,12,15,16,33,5.80
2013,12,15,16,34,5.70
2013,12,15,16,35,5.70
2013,12,15,16,36,5.60
2013,12,15,16,37,5.60
2013,12,15,16,38,5.60
2013,12,15,16,39,5.50
2013,12,15,16,40,5.50
2013,12,15,16,41,5.40
2013,12,15,16,42,5.40
2013,12,15,16,43,5.50
2013,12,15,16,44,5.60
2013,12,15,16,45,5.70
2013,12,15,16,46,5.80
2013,12,15,16,47,5.80
2013,12,15,16,48,5.90
2013,12,15,16,49,6.10
2013,12,15,16,50,6.20
2013,12,15,16,51,6.30
2013,12,15,16,52,6.30
2013,12,15,16,53,6.20
2013,12,15,16,54,6.10
2013,12,15,16,55,6.00
2013,12,15,16,56,5.90
2013,12,15,16,57,5.80
2013,12,15,16,58,5.70
2013,12,15,16,59,5.70
2013,12,15,17,00,5.60
2013,12,15,17,01,5.50
2013,12,15,17,02,5.50
2013,12,15,17,03,5.50
2013,12,15,17,04,5.50
2013,12,15,17,05,5.40
2013,12,15,17,06,5.40
2013,12,15,17,07,5.40
2013,12,15,17,08,5.40
2013,12,15,17,09,5.30
2013,12,15,17,10,5.30
2013,12,15,17,11,5.30
2013,12,15,17,12,5.30
2013,12,15,17,13,5.30
2013,12,15,17,14,5.30
2013,12,15,17,15,5.30
2013,12,15,17,16,5.20
2013,12,15,17,17,5.20
2013,12,15,17,18,5.20
2013,12,15,17,19,5.10
2013,12,15,17,20,5.00
2013,12,15,17,21,5.00
2013,12,15,17,22,5.00
2013,12,15,17,23,5.00
2013,12,15,17,24,5.00
2013,12,15,17,25,5.00
2013,12,15,17,26,5.00
2013,12,15,17,27,4.90
2013,12,15,17,28,4.90
2013,12,15,17,29,4.80
2013,12,15,17,30,4.80
2013,12,15,17,31,4.70
2013,12,15,17,32,4.70
2013,12,15,17,33,4.60
2013,12,15,17,34,4.50
2013,12,15,17,35,4.50
2013,12,15,17,36,4.50
2013,12,15,17,37,4.60
2013,12,15,17,38,4.60
2013,12,15,17,39,4.60
2013,12,15,17,40,4.50
2013,12,15,17,41,4.50
2013,12,15,17,42,4.50
2013,12,15,17,43,4.40
2013,12,15,17,44,4.40
2013,12,15,17,45,4.40
2013,12,15,17,46,4.30
2013,12,15,17,47,4.30
2013,12,15,17,48,4.30
2013,12,15,17,49,4.20
2013,12,15,17,50,4.20
2013,12,15,17,51,4.30
2013,12,15,17,52,4.40
2013,12,15,17,53,4.50
2013,12,15,17,54,4.60
2013,12,15,17,55,4.70
2013,12,15,17,56,4.70
2013,12,15,17,57,4.60
2013,12,15,17,58,4.60
2013,12,15,17,59,4.50
2013,12,15,18,00,4.40
2013,12,15,18,01,4.40
2013,12,15,18,02,4.30
2013,12,15,18,03,4.30
2013,12,15,18,04,4.30
2013,12,15,18,05,4.30
2013,12,15,18,06,4.30